Orangeburg, SC

6:59 AM EDT on May 24, 2018 (GMT -0400)
Orangeburg Municipal

Weather History for KOGB - December, 2014

Change the Weather History Date:

Wednesday, December 10, 2014

  Actual Average Record
Temperature  
Mean Temperature 46 °F 49 °F  
Max Temperature 57 °F 60 °F 79 °F (1978)
Min Temperature 34 °F 38 °F 21 °F (1981)
Degree Days  
Heating Degree Days 19 16  
Month to date heating degree days 111 150  
Since 1 July heating degree days 583 519  
Cooling Degree Days 0 0  
Month to date cooling degree days 0 0  
Year to date cooling degree days 2250 2102  
Moisture  
Dew Point 30 °F    
Average Humidity 61    
Maximum Humidity 89    
Minimum Humidity 32    
Precipitation  
Precipitation 0.00 in 0.09 in 0.94 in (2003)
Month to date precipitation 0.01 1.14  
Year to date precipitation 43.82 44.55  
Sea Level Pressure  
Sea Level Pressure 30.05 in    
Wind  
Wind Speed 6 mph (NW)    
Max Wind Speed 17 mph    
Max Gust Speed 22 mph    
Visibility 10 miles    
Events      
T = Trace of Precipitation, MM = Missing Value Source: NWS Daily Summary

Daily Weather History Graph

Daily Weather History Graph

Search for Another Location

Airport or City:

Astronomy

Dec. 10, 2014 Rise Set
Actual Time 7:16 AM EST 5:15 PM EST
Civil Twilight 6:49 AM EST 5:43 PM EST
Nautical Twilight 6:18 AM EST 6:14 PM EST
Astronomical Twilight 5:47 AM EST 6:44 PM EST
Moon 9:21 PM EST (12/10) 10:13 AM EST (12/10)
Length of Visible Light 10h 54m
Length of Day
9h 59m
Waning Gibbous, 83% of the Moon is Illuminated
Dec 10
Waning Gibbous
Dec 14
Last Quarter
Dec 21
New
Dec 28
First Quarter
Jan 4
Full

Hourly Weather History & Observations

Time (EST) Temp. Windchill Dew Point Humidity Pressure Visibility Wind Dir Wind Speed Gust Speed Precip Events Conditions
12:53 AM 43.0 °F 38.8 °F 32.0 °F 65% 30.03 in 10.0 mi NW 6.9 mph - N/A   Clear
1:53 AM 39.9 °F 35.8 °F 32.0 °F 73% 30.04 in 10.0 mi WNW 5.8 mph - N/A   Clear
2:53 AM 39.0 °F 36.8 °F 32.0 °F 76% 30.05 in 10.0 mi NW 3.5 mph - N/A   Clear
3:53 AM 37.9 °F 33.5 °F 30.9 °F 76% 30.05 in 10.0 mi NW 5.8 mph - N/A   Clear
4:53 AM 37.0 °F 33.3 °F 30.9 °F 79% 30.06 in 10.0 mi NW 4.6 mph - N/A   Clear
5:53 AM 37.0 °F 31.6 °F 30.9 °F 79% 30.07 in 10.0 mi NW 6.9 mph - N/A   Clear
6:53 AM 37.0 °F 31.6 °F 30.0 °F 76% 30.08 in 10.0 mi NW 6.9 mph - N/A   Clear
7:53 AM 37.0 °F 32.4 °F 30.0 °F 76% 30.09 in 10.0 mi NNW 5.8 mph - N/A   Clear
8:53 AM 42.1 °F 37.7 °F 30.9 °F 65% 30.10 in 10.0 mi NW 6.9 mph - N/A   Clear
9:53 AM 48.0 °F - 30.0 °F 50% 30.11 in 10.0 mi NW 6.9 mph - N/A   Clear
10:53 AM 51.1 °F - 30.0 °F 44% 30.10 in 10.0 mi Variable 6.9 mph - N/A   Clear
11:53 AM 54.0 °F - 30.0 °F 40% 30.07 in 10.0 mi North 9.2 mph - N/A   Clear
12:53 PM 55.0 °F - 27.0 °F 34% 30.03 in 10.0 mi WNW 15.0 mph - N/A   Clear
1:53 PM 55.9 °F - 27.0 °F 33% 30.01 in 10.0 mi West 9.2 mph 21.9 mph N/A   Clear
2:53 PM 55.9 °F - 28.0 °F 34% 30.01 in 10.0 mi WNW 12.7 mph - N/A   Clear
3:53 PM 55.9 °F - 28.0 °F 34% 30.01 in 10.0 mi WNW 10.4 mph - N/A   Clear
4:53 PM 52.0 °F - 28.9 °F 41% 30.02 in 10.0 mi WNW 6.9 mph - N/A   Clear
5:53 PM 48.9 °F - 30.9 °F 50% 30.02 in 10.0 mi WNW 3.5 mph - N/A   Clear
6:53 PM 45.0 °F 43.5 °F 30.9 °F 58% 30.03 in 10.0 mi West 3.5 mph - N/A   Clear
7:53 PM 41.0 °F - 30.9 °F 67% 30.04 in 10.0 mi Calm Calm - N/A   Clear
8:53 PM 39.0 °F - 30.9 °F 73% 30.04 in 10.0 mi Calm Calm - N/A   Clear
9:53 PM 37.9 °F - 30.9 °F 76% 30.04 in 10.0 mi Calm Calm - N/A   Clear
10:53 PM 36.0 °F - 32.0 °F 86% 30.05 in 10.0 mi Calm Calm - N/A   Clear
11:53 PM 35.1 °F - 30.9 °F 85% 30.05 in 10.0 mi Calm Calm - N/A   Clear